Home > Weather > Umm al-Quwain > Past weeks

Flag for United Arab Emirates Past Weather in Umm al-Quwain, Umm al-Quwain, United Arab Emirates — Yesterday and Last 2 Weeks

Now
102 °F

Passing clouds.


Feels Like: 110 °F
Forecast: 94 / 103 °F
Wind: 14 mph from Northwest

Location: Sharjah International Airport

Current Time: Aug 24, 2016 at 4:28:35 PM

Latest Report: Aug 24, 2016 at 3:00 PM


Visibility: N/A

Pressure: 29.53 "Hg

Humidity: 35%

Dew Point: 70 °F

Location of Umm al-QuwainLocation

Past Weather in Umm al-Quwain — Graph

°F

Umm al-Quwain Temperature Yesterday

Maximum temperature yesterday: 109 °F (at 11:00 AM)
Minimum temperature yesterday: 81 °F (at 5:00 AM)
Average temperature yesterday: 96 °F

High & Low Weather Summary for the Past Weeks

 TemperatureHumidityPressure
High115 °F (Aug 17, 3:00 PM)89% (Aug 21, 4:00 AM)29.62 "Hg (Aug 21, 4:00 AM)
Low81 °F (Aug 23, 5:00 AM)7% (Aug 18, 3:00 PM)29.39 "Hg (Aug 17, 3:00 PM)
Average97 °F41%29.52 "Hg
* Reported Aug 9 3:00 PM — Aug 24 3:00 PM, Umm al-Quwain, Weather by CustomWeather, © 2016

Note: Actual official high and low records may vary slightly from our data, if they occured in-between our weather recording intervals... More about our weather records

Advertising

Umm al-Quwain Weather History for the Previous 24 Hours

Scroll right to see more
 ConditionsComfort  
Time TempWeatherWind HumidityBarometerVisibility
3:00 PM
Wed, Aug 24
102 °FPassing clouds.14 mph35%29.53 "HgN/A
2:00 PM102 °FSunny.14 mph35%29.53 "Hg10 mi
1:00 PM102 °FSunny.15 mph31%29.56 "Hg10 mi
12:00 PM109 °FSunny.5 mph18%29.56 "Hg10 mi
11:00 AM108 °FSunny.6 mph14%29.59 "Hg10 mi
10:00 AM104 °FPassing clouds.2 mph17%29.59 "HgN/A
9:00 AM99 °FSunny.2 mph22%29.59 "Hg10 mi
8:00 AM91 °FSunny.5 mph41%29.59 "Hg10 mi
7:00 AM82 °FSunny.5 mph62%29.59 "Hg10 mi
6:00 AM81 °FSunny.3 mph70%29.56 "Hg10 mi
5:00 AM88 °FClear.7 mph66%29.56 "Hg10 mi
4:00 AM84 °FClear.8 mph70%29.56 "Hg10 mi
3:00 AM84 °FClear.5 mph66%29.56 "Hg10 mi
2:00 AM84 °FClear.3 mph55%29.56 "Hg10 mi
1:00 AM90 °FClear.3 mph36%29.56 "Hg10 mi
12:00 AM88 °FClear.1 mph31%29.56 "Hg10 mi
11:00 PM
Tue, Aug 23
93 °FClear.2 mph28%29.59 "Hg10 mi
10:00 PM95 °FClear.1 mph25%29.59 "Hg10 mi
9:00 PM97 °FClear.5 mph25%29.59 "Hg10 mi
8:00 PM100 °FClear.5 mph20%29.56 "Hg10 mi
7:00 PM104 °FClear.7 mph17%29.56 "Hg10 mi
6:00 PM108 °FSunny.7 mph18%29.56 "Hg10 mi
5:00 PM108 °FSunny.10 mph16%29.53 "Hg10 mi
4:00 PM106 °FSunny.13 mph22%29.56 "Hg10 mi
Weather by CustomWeather, © 2016

See weather overviewHow to use our weather pages